Погода в Визирном

Россия / Иркутская область     58°53′36″N   111°15′15″E
темп.,
°C
ветер,
м/с
пор.,
м/с
влажн.,
%
обл.,
%
осадки,
мм/ч
давл.,
гПа
погр.,
м
14 июня, пн
пн1423:00+12зюз1143100 0.0 100311
02:00+11юз1145100 0.0 100310
05:00+11ююз115294 0.0 100320
08:00+17ююз1237100 0.0 1003387
11:00+22юз2324100 0.0 10022900
14:00+24з3221100 0.0 10013353
17:00+22зсз3426100 0.0 10021399
20:00+17зсз2451100 0.0 100398
15 июня, вт
вт1523:00+12ссв0066100 0.0 100511
02:00+10сз1189100 0.6 100613
05:00+10ссз1193100 0.3 100731
08:00+13ссз1286100 1.3 1008414
11:00+18ссз2357100 0.0 10081066
14:00+20с4549100 0.8 10072098
17:00+21с4443100 0.6 10061497
20:00+16всв41070100 1.2 1008476
16 июня, ср
ср1623:00+10з239798 1.6 101087
02:00+10с229576 1.6 101037
05:00+10сз009588 0.0 101024
08:00+15с247186 0.0 1010587
11:00+20с445066 0.3 10091548
14:00+19ссв344993 0.4 1008996
17:00+14в3874100 0.2 1009285
20:00+17ссв376089 0.2 1009400
17 июня, чт
чт1723:00+13ссз228078 0.0 101035
02:00+9ссз22935 0.0 101015
05:00+10сз11847 0.0 101136
08:00+16с245177 0.0 1010480
11:00+21с453057 0.0 10092748
14:00+23ссз352683 0.0 10083047
17:00+21с553474 0.0 10082245
20:00+18с264811 0.0 1009242
18 июня, пт
пт1823:00+11сз117827 0.0 100912
02:00+9сз11935 0.0 101011
05:00+10ссз11895 0.0 100935
08:00+17с23565 0.0 1009599
11:00+22ссв223644 0.0 10072356
14:00+21ссз333395 0.0 10061998
17:00+23ссз232892 0.0 10052498
20:00+18св125131 0.0 100536